sampling_time,wmo_synop_id,msc_id,stn_nam,stn_elev,lat,long,stn_typ,date_tm,rpt_typ,result_time,crnt_buoy_lat,crnt_buoy_lat_qa_summary,crnt_buoy_long,crnt_buoy_long_qa_summary,avg_air_temp_pst10mts,avg_air_temp_pst10mts_qa_summary,avg_sea_sfc_temp_pst10mts,avg_sea_sfc_temp_pst10mts_qa_summary,avg_batry_volt_pst10mts,avg_batry_volt_pst10mts_qa_summary,avg_solr_panl_crnt_pst10mts,avg_solr_panl_crnt_pst10mts_qa_summary,avg_wtr_lvl_snsr_volt_pst10mts,avg_wtr_lvl_snsr_volt_pst10mts_qa_summary,avg_wave_hgt_pst20mts,avg_wave_hgt_pst20mts_qa_summary,pk_wave_hgt_pst20mts,pk_wave_hgt_pst20mts_qa_summary,sig_wave_pd_pst20mts,sig_wave_pd_pst20mts_qa_summary,sig_wave_hgt_pst20mts,sig_wave_hgt_pst20mts_qa_summary,avg_max_wave_hgt_pst20mts,avg_max_wave_hgt_pst20mts_qa_summary,avg_max_wave_pd_pst20mts,avg_max_wave_pd_pst20mts_qa_summary,avg_wave_pd_pst20mts,avg_wave_pd_pst20mts_qa_summary,pk_wave_pd_pst20mts,pk_wave_pd_pst20mts_qa_summary,avg_stn_pres_pst10mts,avg_stn_pres_pst10mts_qa_summary,avg_wnd_spd_pst10mts,avg_wnd_spd_pst10mts_qa_summary,avg_wnd_dir_pst10mts,avg_wnd_dir_pst10mts_qa_summary,max_avg_wnd_spd_pst10mts,max_avg_wnd_spd_pst10mts_qa_summary,wnd_snsr_vert_disp_1,wnd_snsr_vert_disp_1_qa_summary,pres_tend_char_pst3hrs,pres_tend_char_pst3hrs_data_flag,pres_tend_amt_pst3hrs,pres_tend_amt_pst3hrs_data_flag,avg_mslp_pst10mts,avg_mslp_pst10mts_data_flag,avg_stn_pres_pst10mts_1,avg_stn_pres_pst10mts_1_qa_summary,avg_stn_pres_pst10mts_2,avg_stn_pres_pst10mts_2_qa_summary,avg_wnd_spd_pst10mts_1,avg_wnd_spd_pst10mts_1_qa_summary,avg_wnd_spd_pst10mts_2,avg_wnd_spd_pst10mts_2_qa_summary,avg_wnd_dir_pst10mts_1,avg_wnd_dir_pst10mts_1_qa_summary,avg_wnd_dir_pst10mts_2,avg_wnd_dir_pst10mts_2_qa_summary,max_avg_wnd_spd_pst10mts_1,max_avg_wnd_spd_pst10mts_1_qa_summary,max_avg_wnd_spd_pst10mts_2,max_avg_wnd_spd_pst10mts_2_qa_summary
2020-10-30T00:10:00Z,44489,9302001,WEST CHEDABUCTO BAY,0.0,45.48687,-61.14100000000001,18,2020-10-30T00:10:00.000Z,110,2020-10-30T00:13:41.673Z,,-1,,-1,8.9,100,12.3,100,12.6,100,0.0,100,3.6,100,,-1,,-1,,-1,,-1,,-1,,-1,,-1,,-1,1008.9,100,20.2,100,269,100,23.0,100,5.0,100,0.0,1,0.9,1,1008.9,1,1008.9,100,1008.9,100,20.2,100,19.8,100,269,100,274,100,23.0,100,22.7,100
2020-10-30T00:20:00Z,44489,9302001,WEST CHEDABUCTO BAY,0.0,45.48687,-61.14100000000001,18,2020-10-30T00:20:00.000Z,110,2020-10-30T00:22:40.981Z,45.48723,100,-61.141169999999995,100,7.8,100,11.6,100,12.6,100,0.0,100,3.6,100,,-1,,-1,,-1,,-1,,-1,,-1,,-1,,-1,1009.0,100,22.7,100,306,100,29.2,100,5.0,100,1.0,1,0.8,1,1009.0,1,1009.0,100,1009.0,100,22.7,100,22.3,100,306,100,311,100,29.2,100,29.5,100
2020-10-30T00:30:00Z,44489,9302001,WEST CHEDABUCTO BAY,0.0,45.48687,-61.14100000000001,18,2020-10-30T00:30:00.000Z,110,2020-10-30T00:33:45.975Z,45.48723,100,-61.14118000000001,100,7.0,100,11.5,100,12.6,100,0.0,100,3.6,100,,-1,,-1,,-1,,-1,,-1,,-1,,-1,,-1,1009.1,100,27.7,100,336,100,33.8,100,5.0,100,1.0,1,0.7,1,1009.1,1,1009.1,100,1009.1,100,27.7,100,27.4,100,336,100,341,100,33.8,100,33.5,100
2020-10-30T00:40:00Z,44489,9302001,WEST CHEDABUCTO BAY,0.0,45.48687,-61.14100000000001,18,2020-10-30T00:40:00.000Z,110,2020-10-30T00:42:53.408Z,45.4872,100,-61.14115,100,6.8,100,11.5,100,12.6,100,0.0,100,3.6,100,,-1,,-1,,-1,,-1,,-1,,-1,,-1,,-1,1009.2,100,28.8,100,334,100,33.8,100,5.0,100,1.0,1,0.7,1,1009.2,1,1009.2,100,1009.2,100,28.8,100,28.4,100,334,100,339,100,33.8,100,33.8,100
2020-10-30T00:50:00Z,44489,9302001,WEST CHEDABUCTO BAY,0.0,45.48687,-61.14100000000001,18,2020-10-30T00:50:00.000Z,110,2020-10-30T00:52:53.180Z,45.48723,100,-61.14115,100,6.8,100,11.5,100,12.6,100,0.0,100,3.6,100,,-1,,-1,,-1,,-1,,-1,,-1,,-1,,-1,1009.4,100,24.5,100,328,100,28.8,100,5.0,100,3.0,1,0.7,1,1009.4,1,1009.4,100,1009.4,100,24.5,100,24.1,100,328,100,333,100,28.8,100,28.8,100
2020-10-30T01:00:00Z,44489,9302001,WEST CHEDABUCTO BAY,0.0,45.48687,-61.14100000000001,18,2020-10-30T01:00:00.000Z,108,2020-10-30T01:02:51.238Z,45.48722,100,-61.14117,100,6.6,100,11.5,100,12.6,100,0.0,100,3.6,100,0.1,100,0.5,100,2.0,100,0.2,100,0.3,100,2.0,100,2.0,100,2.1,100,1009.2,100,24.1,100,336,100,31.0,100,5.0,100,,4,0.5,1,1009.2,1,1009.2,100,1009.2,100,24.1,100,23.8,100,336,100,341,100,31.0,100,31.0,100
2020-10-30T01:10:00Z,44489,9302001,WEST CHEDABUCTO BAY,0.0,45.48687,-61.14100000000001,18,2020-10-30T01:10:00.000Z,110,2020-10-30T01:16:04.200Z,45.48723,100,-61.141130000000004,100,6.6,100,11.5,100,12.6,100,0.0,100,3.6,100,,-1,,-1,,-1,,-1,,-1,,-1,,-1,,-1,1009.1,100,24.1,100,333,100,32.8,100,5.0,100,2.0,1,0.3,1,1009.1,1,1009.1,100,1009.1,100,24.1,100,23.8,100,333,100,338,100,32.8,100,32.4,100
2020-10-30T01:20:00Z,44489,9302001,WEST CHEDABUCTO BAY,0.0,45.48687,-61.14100000000001,18,2020-10-30T01:20:00.000Z,110,2020-10-30T01:23:01.922Z,45.48723,100,-61.14118000000001,100,6.4,100,11.5,100,12.6,100,0.0,100,3.6,100,,-1,,-1,,-1,,-1,,-1,,-1,,-1,,-1,1008.9,100,18.0,100,357,100,23.8,100,5.0,100,0.0,1,0.1,1,1008.9,1,1008.9,100,1008.9,100,18.0,100,18.0,100,357,100,2,100,23.8,100,23.8,100
2020-10-30T01:30:00Z,44489,9302001,WEST CHEDABUCTO BAY,0.0,45.48687,-61.14100000000001,18,2020-10-30T01:30:00.000Z,110,2020-10-30T01:33:04.948Z,45.4872,100,-61.14118000000001,100,6.4,100,11.5,100,12.6,100,0.0,100,3.6,100,,-1,,-1,,-1,,-1,,-1,,-1,,-1,,-1,1008.9,100,20.2,100,5,100,24.1,100,5.0,100,8.0,1,-0.1,1,1008.9,1,1008.9,100,1008.9,100,20.2,100,19.8,100,5,100,10,100,24.1,100,24.5,100
2020-10-30T01:40:00Z,44489,9302001,WEST CHEDABUCTO BAY,0.0,45.48687,-61.14100000000001,18,2020-10-30T01:40:00.000Z,110,2020-10-30T01:43:04.956Z,45.4872,100,-61.14117,100,6.3,100,11.5,100,12.6,100,0.0,100,3.6,100,,-1,,-1,,-1,,-1,,-1,,-1,,-1,,-1,1009.0,100,20.2,100,1,100,25.6,100,5.0,100,0.0,1,0.1,1,1009.0,1,1009.0,100,1009.0,100,20.2,100,20.2,100,1,100,6,100,25.6,100,25.9,100
2020-10-30T01:50:00Z,44489,9302001,WEST CHEDABUCTO BAY,0.0,45.48687,-61.14100000000001,18,2020-10-30T01:50:00.000Z,110,2020-10-30T01:53:08.073Z,45.4872,100,-61.14123000000001,100,6.2,100,11.5,100,12.6,100,0.0,100,3.6,100,,-1,,-1,,-1,,-1,,-1,,-1,,-1,,-1,1008.7,100,20.9,100,3,100,25.6,100,5.0,100,8.0,1,-0.3,1,1008.7,1,1008.7,100,1008.7,100,20.9,100,20.9,100,3,100,8,100,25.6,100,25.6,100
2020-10-30T02:00:00Z,44489,9302001,WEST CHEDABUCTO BAY,0.0,45.48687,-61.14100000000001,18,2020-10-30T02:00:00.000Z,108,2020-10-30T02:03:06.718Z,45.48723,100,-61.14118000000001,100,6.1,100,11.4,100,12.6,100,0.0,100,3.6,100,0.1,100,0.3,100,2.0,100,0.2,100,0.2,100,2.0,100,2.0,100,2.0,100,1008.8,100,19.8,100,3,100,23.8,100,5.0,100,,4,-0.2,1,1008.8,1,1008.8,100,1008.8,100,19.8,100,19.4,100,3,100,8,100,23.8,100,23.4,100
2020-10-30T02:10:00Z,44489,9302001,WEST CHEDABUCTO BAY,0.0,45.48687,-61.14100000000001,18,2020-10-30T02:10:00.000Z,110,2020-10-30T02:16:08.230Z,45.4872,100,-61.14122,100,6.1,100,11.4,100,12.6,100,0.0,100,3.6,100,,-1,,-1,,-1,,-1,,-1,,-1,,-1,,-1,1009.0,100,19.1,100,0,100,23.4,100,5.0,100,4.0,1,0.0,1,1009.0,1,1009.0,100,1009.0,100,19.1,100,18.7,100,0,100,5,100,23.4,100,23.8,100
2020-10-30T02:20:00Z,44489,9302001,WEST CHEDABUCTO BAY,0.0,45.48687,-61.14100000000001,18,2020-10-30T02:20:00.000Z,110,2020-10-30T02:23:18.157Z,45.48722,100,-61.14118000000001,100,6.1,100,11.4,100,12.6,100,0.0,100,3.6,100,,-1,,-1,,-1,,-1,,-1,,-1,,-1,,-1,1008.9,100,17.3,100,356,100,21.6,100,5.0,100,6.0,1,-0.1,1,1008.9,1,1008.9,100,1008.9,100,17.3,100,16.9,100,356,100,1,100,21.6,100,21.2,100
2020-10-30T02:30:00Z,44489,9302001,WEST CHEDABUCTO BAY,0.0,45.48687,-61.14100000000001,18,2020-10-30T02:30:00.000Z,110,2020-10-30T02:33:15.929Z,45.48722,100,-61.14122,100,6.1,100,11.4,100,12.6,100,0.0,100,3.6,100,,-1,,-1,,-1,,-1,,-1,,-1,,-1,,-1,1008.9,100,17.3,100,358,100,22.3,100,5.0,100,6.0,1,-0.2,1,1008.9,1,1008.9,100,1008.9,100,17.3,100,16.9,100,358,100,3,100,22.3,100,21.6,100
2020-10-30T02:40:00Z,44489,9302001,WEST CHEDABUCTO BAY,0.0,45.48687,-61.14100000000001,18,2020-10-30T02:40:00.000Z,110,2020-10-30T02:43:23.473Z,45.48727,100,-61.14122,100,6.1,100,11.4,100,12.6,100,0.0,100,3.6,100,,-1,,-1,,-1,,-1,,-1,,-1,,-1,,-1,1008.8,100,15.1,100,4,100,19.1,100,5.0,100,8.0,1,-0.3,1,1008.8,1,1008.8,100,1008.8,100,15.1,100,14.8,100,4,100,9,100,19.1,100,18.4,100
2020-10-30T02:50:00Z,44489,9302001,WEST CHEDABUCTO BAY,0.0,45.48687,-61.14100000000001,18,2020-10-30T02:50:00.000Z,110,2020-10-30T02:53:24.049Z,45.48723,100,-61.1412,100,6.1,100,11.4,100,12.6,100,0.0,100,3.6,100,,-1,,-1,,-1,,-1,,-1,,-1,,-1,,-1,1008.8,100,13.3,100,0,100,19.1,100,5.0,100,8.0,1,-0.2,1,1008.8,1,1008.8,100,1008.8,100,13.3,100,13.0,100,0,100,5,100,19.1,100,19.1,100
2020-10-30T03:00:00Z,44489,9302001,WEST CHEDABUCTO BAY,0.0,45.48687,-61.14100000000001,18,2020-10-30T03:00:00.000Z,108,2020-10-30T03:03:21.021Z,45.48725,100,-61.14123000000001,100,6.3,100,11.4,100,12.6,100,0.0,100,3.6,100,0.1,100,0.2,100,2.7,100,0.1,100,0.1,100,2.8,100,2.5,100,10.5,100,1008.6,100,12.2,100,359,100,16.6,100,5.0,100,,4,,4,1008.6,1,1008.6,100,1008.6,100,12.2,100,11.9,100,359,100,4,100,16.6,100,16.2,100
2020-10-30T03:10:00Z,44489,9302001,WEST CHEDABUCTO BAY,0.0,45.48687,-61.14100000000001,18,2020-10-30T03:10:00.000Z,110,2020-10-30T03:16:25.347Z,45.48722,100,-61.14118000000001,100,6.5,100,11.4,100,12.6,100,0.0,100,3.6,100,,-1,,-1,,-1,,-1,,-1,,-1,,-1,,-1,1008.3,100,15.1,100,352,100,20.5,100,5.0,100,8.0,1,-0.6,1,1008.3,1,1008.3,100,1008.3,100,15.1,100,14.8,100,352,100,357,100,20.5,100,19.4,100
2020-10-30T03:20:00Z,44489,9302001,WEST CHEDABUCTO BAY,0.0,45.48687,-61.14100000000001,18,2020-10-30T03:20:00.000Z,110,2020-10-30T03:23:24.147Z,45.48717,100,-61.14118000000001,100,6.5,100,11.4,100,12.6,100,0.0,100,3.6,100,,-1,,-1,,-1,,-1,,-1,,-1,,-1,,-1,1008.2,100,16.9,100,355,100,22.0,100,5.0,100,8.0,1,-0.8,1,1008.2,1,1008.2,100,1008.2,100,16.9,100,16.6,100,355,100,0,100,22.0,100,21.6,100
2020-10-30T03:30:00Z,44489,9302001,WEST CHEDABUCTO BAY,0.0,45.48687,-61.14100000000001,18,2020-10-30T03:30:00.000Z,110,2020-10-30T03:33:36.485Z,45.4872,100,-61.1412,100,6.5,100,11.4,100,12.6,100,0.0,100,3.6,100,,-1,,-1,,-1,,-1,,-1,,-1,,-1,,-1,1008.4,100,25.2,100,349,100,41.0,100,5.0,100,8.0,1,-0.7,1,1008.4,1,1008.4,100,1008.4,100,25.2,100,24.5,100,349,100,354,100,41.0,100,40.0,100
2020-10-30T03:40:00Z,44489,9302001,WEST CHEDABUCTO BAY,0.0,45.48687,-61.14100000000001,18,2020-10-30T03:40:00.000Z,110,2020-10-30T03:43:25.550Z,45.4872,100,-61.1412,100,5.8,100,11.4,100,12.6,100,0.0,100,3.6,100,,-1,,-1,,-1,,-1,,-1,,-1,,-1,,-1,1008.4,100,31.0,100,354,100,40.0,100,5.0,100,8.0,1,-0.8,1,1008.4,1,1008.4,100,1008.5,100,31.0,100,30.6,100,354,100,359,100,40.0,100,39.6,100
2020-10-30T03:50:00Z,44489,9302001,WEST CHEDABUCTO BAY,0.0,45.48687,-61.14100000000001,18,2020-10-30T03:50:00.000Z,110,2020-10-30T03:52:39.972Z,45.48717,100,-61.1412,100,5.6,100,11.4,100,12.5,100,0.0,100,3.6,100,,-1,,-1,,-1,,-1,,-1,,-1,,-1,,-1,1008.6,100,31.3,100,357,100,40.7,100,5.0,100,6.0,1,-0.7,1,1008.6,1,1008.6,100,1008.6,100,31.3,100,31.0,100,357,100,2,100,40.7,100,40.0,100
2020-10-30T04:00:00Z,44489,9302001,WEST CHEDABUCTO BAY,0.0,45.48687,-61.14100000000001,18,2020-10-30T04:00:00.000Z,108,2020-10-30T04:02:41.572Z,45.48718,100,-61.14122,100,5.4,100,11.5,100,12.5,100,0.0,100,3.6,100,0.2,100,0.6,100,2.1,100,0.3,100,0.4,100,2.1,100,2.1,100,2.2,100,1008.7,100,30.2,100,2,100,36.7,100,5.0,100,5.0,1,-0.5,1,1008.7,1,1008.7,100,1008.7,100,30.2,100,29.5,100,2,100,7,100,36.7,100,36.0,100
2020-10-30T04:10:00Z,44489,9302001,WEST CHEDABUCTO BAY,0.0,45.48687,-61.14100000000001,18,2020-10-30T04:10:00.000Z,110,2020-10-30T04:15:38.588Z,45.48718,100,-61.1412,100,5.2,100,11.5,100,12.6,100,0.0,100,3.6,100,,-1,,-1,,-1,,-1,,-1,,-1,,-1,,-1,1008.9,100,27.7,100,2,100,35.6,100,5.0,100,5.0,1,-0.2,1,1008.9,1,1008.9,100,1009.0,100,27.7,100,27.0,100,2,100,7,100,35.6,100,34.6,100
2020-10-30T04:20:00Z,44489,9302001,WEST CHEDABUCTO BAY,0.0,45.48687,-61.14100000000001,18,2020-10-30T04:20:00.000Z,110,2020-10-30T04:22:39.886Z,45.48718,100,-61.14122,100,5.2,100,11.5,100,12.6,100,0.0,100,3.6,100,,-1,,-1,,-1,,-1,,-1,,-1,,-1,,-1,1008.9,100,26.6,100,3,100,36.0,100,5.0,100,5.0,1,0.0,1,1008.9,1,1008.9,100,1008.9,100,26.6,100,26.3,100,3,100,8,100,36.0,100,34.9,100
2020-10-30T04:30:00Z,44489,9302001,WEST CHEDABUCTO BAY,0.0,45.48687,-61.14100000000001,18,2020-10-30T04:30:00.000Z,110,2020-10-30T04:32:43.860Z,45.4872,100,-61.14122,100,5.2,100,11.5,100,12.6,100,0.0,100,3.6,100,,-1,,-1,,-1,,-1,,-1,,-1,,-1,,-1,1008.9,100,26.3,100,8,100,34.9,100,5.0,100,5.0,1,0.0,1,1008.9,1,1008.9,100,1008.9,100,26.3,100,25.6,100,8,100,13,100,34.9,100,34.9,100
2020-10-30T04:40:00Z,44489,9302001,WEST CHEDABUCTO BAY,0.0,45.48687,-61.14100000000001,18,2020-10-30T04:40:00.000Z,110,2020-10-30T04:42:44.949Z,45.48718,100,-61.14122,100,5.1,100,11.4,100,12.5,100,0.0,100,3.6,100,,-1,,-1,,-1,,-1,,-1,,-1,,-1,,-1,1009.0,100,24.5,100,3,100,30.6,100,5.0,100,5.0,1,0.0,1,1009.0,1,1009.0,100,1009.0,100,24.5,100,23.8,100,3,100,7,100,30.6,100,29.9,100
2020-10-30T04:50:00Z,44489,9302001,WEST CHEDABUCTO BAY,0.0,45.48687,-61.14100000000001,18,2020-10-30T04:50:00.000Z,110,2020-10-30T04:52:53.356Z,45.48718,100,-61.14123000000001,100,5.1,100,11.4,100,12.5,100,0.0,100,3.6,100,,-1,,-1,,-1,,-1,,-1,,-1,,-1,,-1,1009.4,100,23.0,100,3,100,31.0,100,5.0,100,3.0,1,0.7,1,1009.4,1,1009.4,100,1009.4,100,23.0,100,22.3,100,3,100,8,100,31.0,100,31.0,100
2020-10-30T05:00:00Z,44489,9302001,WEST CHEDABUCTO BAY,0.0,45.48687,-61.14100000000001,18,2020-10-30T05:00:00.000Z,108,2020-10-30T05:02:53.462Z,45.48718,100,-61.14123000000001,100,5.0,100,11.4,100,12.5,100,0.0,100,3.6,100,0.1,100,0.4,100,2.0,100,0.2,100,0.3,100,2.0,100,2.0,100,2.1,100,1009.4,100,22.0,100,359,100,28.8,100,5.0,100,3.0,1,0.6,1,1009.4,1,1009.4,100,1009.4,100,22.0,100,21.2,100,359,100,4,100,28.8,100,28.8,100
2020-10-30T05:10:00Z,44489,9302001,WEST CHEDABUCTO BAY,0.0,45.48687,-61.14100000000001,18,2020-10-30T05:10:00.000Z,110,2020-10-30T05:16:58.259Z,45.48722,100,-61.14123000000001,100,4.9,100,11.4,100,12.6,100,0.0,100,3.6,100,,-1,,-1,,-1,,-1,,-1,,-1,,-1,,-1,1009.3,100,19.8,100,358,100,27.4,100,5.0,100,3.0,1,0.3,1,1009.3,1,1009.3,100,1009.3,100,19.8,100,19.1,100,358,100,3,100,27.4,100,27.4,100
2020-10-30T05:20:00Z,44489,9302001,WEST CHEDABUCTO BAY,0.0,45.48687,-61.14100000000001,18,2020-10-30T05:20:00.000Z,110,2020-10-30T05:23:04.714Z,45.4872,100,-61.1412,100,5.0,100,11.4,100,12.6,100,0.0,100,3.6,100,,-1,,-1,,-1,,-1,,-1,,-1,,-1,,-1,1009.3,100,21.2,100,358,100,28.4,100,5.0,100,3.0,1,0.4,1,1009.3,1,1009.3,100,1009.4,100,21.2,100,20.5,100,358,100,4,100,28.4,100,28.4,100
2020-10-30T05:30:00Z,44489,9302001,WEST CHEDABUCTO BAY,0.0,45.48687,-61.14100000000001,18,2020-10-30T05:30:00.000Z,110,2020-10-30T05:33:03.815Z,45.48722,100,-61.14125,100,5.0,100,11.4,100,12.6,100,0.0,100,3.6,100,,-1,,-1,,-1,,-1,,-1,,-1,,-1,,-1,1009.1,100,23.4,100,1,100,29.5,100,5.0,100,3.0,1,0.2,1,1009.1,1,1009.1,100,1009.1,100,23.4,100,22.7,100,1,100,6,100,29.5,100,28.8,100
2020-10-30T05:40:00Z,44489,9302001,WEST CHEDABUCTO BAY,0.0,45.48687,-61.14100000000001,18,2020-10-30T05:40:00.000Z,110,2020-10-30T05:43:16.381Z,45.48717,100,-61.14118000000001,100,5.0,100,11.4,100,12.5,100,0.0,100,3.6,100,,-1,,-1,,-1,,-1,,-1,,-1,,-1,,-1,1009.1,100,24.8,100,1,100,31.3,100,5.0,100,3.0,1,0.3,1,1009.1,1,1009.1,100,1009.1,100,24.8,100,24.1,100,1,100,6,100,31.3,100,30.6,100
2020-10-30T05:50:00Z,44489,9302001,WEST CHEDABUCTO BAY,0.0,45.48687,-61.14100000000001,18,2020-10-30T05:50:00.000Z,110,2020-10-30T05:53:21.173Z,45.48723,100,-61.14127,100,5.0,100,11.4,100,12.5,100,0.0,100,3.6,100,,-1,,-1,,-1,,-1,,-1,,-1,,-1,,-1,1009.2,100,24.8,100,8,100,31.0,100,5.0,100,0.0,1,0.4,1,1009.2,1,1009.2,100,1009.2,100,24.8,100,24.1,100,8,100,13,100,31.0,100,30.2,100
2020-10-30T06:00:00Z,44489,9302001,WEST CHEDABUCTO BAY,0.0,45.48687,-61.14100000000001,18,2020-10-30T06:00:00.000Z,108,2020-10-30T06:03:16.932Z,45.48718,100,-61.14125,100,4.9,100,11.4,100,12.5,100,0.0,100,3.6,100,0.1,100,0.3,100,2.2,100,0.2,100,0.2,100,2.2,100,2.2,100,10.0,100,1009.3,100,24.5,100,13,100,31.7,100,5.0,100,0.0,1,0.7,1,1009.3,1,1009.3,100,1009.3,100,24.5,100,24.1,100,13,100,18,100,31.7,100,31.0,100
2020-10-30T06:10:00Z,44489,9302001,WEST CHEDABUCTO BAY,0.0,45.48687,-61.14100000000001,18,2020-10-30T06:10:00.000Z,110,2020-10-30T06:16:16.386Z,45.48718,100,-61.14125,100,4.9,100,11.4,100,12.6,100,0.0,100,3.6,100,,-1,,-1,,-1,,-1,,-1,,-1,,-1,,-1,1009.2,100,25.2,100,19,100,32.0,100,5.0,100,0.0,1,0.9,1,1009.2,1,1009.2,100,1009.2,100,25.2,100,24.8,100,19,100,24,100,32.0,100,31.7,100
2020-10-30T06:20:00Z,44489,9302001,WEST CHEDABUCTO BAY,0.0,45.48687,-61.14100000000001,18,2020-10-30T06:20:00.000Z,110,2020-10-30T06:23:22.011Z,45.4872,100,-61.14125,100,4.8,100,11.4,100,12.6,100,0.0,100,3.6,100,,-1,,-1,,-1,,-1,,-1,,-1,,-1,,-1,1009.0,100,27.0,100,18,100,33.1,100,5.0,100,0.0,1,0.8,1,1009.0,1,1009.0,100,1009.0,100,27.0,100,26.3,100,18,100,23,100,33.1,100,32.4,100
2020-10-30T06:30:00Z,44489,9302001,WEST CHEDABUCTO BAY,0.0,45.48687,-61.14100000000001,18,2020-10-30T06:30:00.000Z,110,2020-10-30T06:33:18.559Z,45.48718,100,-61.14125,100,4.7,100,11.4,100,12.5,100,0.0,100,3.6,100,,-1,,-1,,-1,,-1,,-1,,-1,,-1,,-1,1009.1,100,26.3,100,27,100,34.6,100,5.0,100,1.0,1,0.7,1,1009.1,1,1009.1,100,1009.1,100,26.3,100,25.9,100,27,100,32,100,34.6,100,34.6,100
2020-10-30T06:40:00Z,44489,9302001,WEST CHEDABUCTO BAY,0.0,45.48687,-61.14100000000001,18,2020-10-30T06:40:00.000Z,110,2020-10-30T06:43:35.373Z,45.4872,100,-61.14125,100,4.7,100,11.4,100,12.5,100,0.0,100,3.6,100,,-1,,-1,,-1,,-1,,-1,,-1,,-1,,-1,1009.1,100,25.9,100,18,100,31.7,100,5.0,100,1.0,1,0.7,1,1009.1,1,1009.1,100,1009.1,100,25.9,100,25.2,100,18,100,23,100,31.7,100,30.6,100
2020-10-30T06:50:00Z,44489,9302001,WEST CHEDABUCTO BAY,0.0,45.48687,-61.14100000000001,18,2020-10-30T06:50:00.000Z,110,2020-10-30T06:53:34.032Z,45.48722,100,-61.14125,100,4.5,100,11.4,100,12.5,100,0.0,100,3.6,100,,-1,,-1,,-1,,-1,,-1,,-1,,-1,,-1,1009.1,100,27.4,100,14,100,33.1,100,5.0,100,0.0,1,0.5,1,1009.1,1,1009.1,100,1009.1,100,27.4,100,26.6,100,14,100,19,100,33.1,100,32.8,100
2020-10-30T07:00:00Z,44489,9302001,WEST CHEDABUCTO BAY,0.0,45.48687,-61.14100000000001,18,2020-10-30T07:00:00.000Z,108,2020-10-30T07:03:34.116Z,45.4872,100,-61.14127,100,4.4,100,11.4,100,12.5,100,0.0,100,3.6,100,0.2,100,0.5,100,2.2,100,0.2,100,0.3,100,2.1,100,2.2,100,2.1,100,1009.0,100,25.2,100,18,100,31.3,100,5.0,100,0.0,1,0.3,1,1009.0,1,1009.0,100,1009.0,100,25.2,100,24.5,100,18,100,23,100,31.3,100,31.0,100
2020-10-30T07:10:00Z,44489,9302001,WEST CHEDABUCTO BAY,0.0,45.48687,-61.14100000000001,18,2020-10-30T07:10:00.000Z,110,2020-10-30T07:16:37.818Z,45.4872,100,-61.14127,100,4.4,100,11.4,100,12.5,100,0.0,100,3.6,100,,-1,,-1,,-1,,-1,,-1,,-1,,-1,,-1,1008.7,100,26.3,100,20,100,33.5,100,5.0,100,8.0,1,-0.3,1,1008.7,1,1008.7,100,1008.7,100,26.3,100,25.9,100,20,100,25,100,33.5,100,32.4,100
2020-10-30T07:20:00Z,44489,9302001,WEST CHEDABUCTO BAY,0.0,45.48687,-61.14100000000001,18,2020-10-30T07:20:00.000Z,110,2020-10-30T07:22:34.751Z,45.48718,100,-61.14125,100,4.6,100,11.4,100,12.5,100,0.0,100,3.6,100,,-1,,-1,,-1,,-1,,-1,,-1,,-1,,-1,1008.5,100,25.9,100,18,100,36.4,100,5.0,100,8.0,1,-0.4,1,1008.5,1,1008.5,100,1008.5,100,25.9,100,25.2,100,18,100,23,100,36.4,100,35.6,100
2020-10-30T07:30:00Z,44489,9302001,WEST CHEDABUCTO BAY,0.0,45.48687,-61.14100000000001,18,2020-10-30T07:30:00.000Z,110,2020-10-30T07:32:36.390Z,45.4872,100,-61.14128,100,4.7,100,11.4,100,12.5,100,0.0,100,3.6,100,,-1,,-1,,-1,,-1,,-1,,-1,,-1,,-1,1008.4,100,27.4,100,22,100,34.2,100,5.0,100,8.0,1,-0.5,1,1008.4,1,1008.4,100,1008.4,100,27.4,100,26.6,100,22,100,27,100,34.2,100,34.2,100
2020-10-30T07:40:00Z,44489,9302001,WEST CHEDABUCTO BAY,0.0,45.48687,-61.14100000000001,18,2020-10-30T07:40:00.000Z,110,2020-10-30T07:42:43.072Z,45.4872,100,-61.14131999999999,100,4.4,100,11.4,100,12.5,100,0.0,100,3.6,100,,-1,,-1,,-1,,-1,,-1,,-1,,-1,,-1,1008.2,100,28.4,100,26,100,35.6,100,5.0,100,8.0,1,-0.8,1,1008.2,1,1008.2,100,1008.2,100,28.4,100,27.7,100,26,100,31,100,35.6,100,34.9,100
2020-10-30T07:50:00Z,44489,9302001,WEST CHEDABUCTO BAY,0.0,45.48687,-61.14100000000001,18,2020-10-30T07:50:00.000Z,110,2020-10-30T07:52:38.862Z,45.48717,100,-61.14131999999999,100,4.5,100,11.4,100,12.5,100,0.0,100,3.6,100,,-1,,-1,,-1,,-1,,-1,,-1,,-1,,-1,1008.1,100,30.6,100,21,100,37.4,100,5.0,100,8.0,1,-1.2,1,1008.1,1,1008.1,100,1008.1,100,30.6,100,29.5,100,21,100,26,100,37.4,100,36.4,100
2020-10-30T08:00:00Z,44489,9302001,WEST CHEDABUCTO BAY,0.0,45.48687,-61.14100000000001,18,2020-10-30T08:00:00.000Z,108,2020-10-30T08:03:00.038Z,45.4872,100,-61.14128,100,4.5,100,11.4,100,12.5,100,0.0,100,3.6,100,0.2,100,0.5,100,2.3,100,0.3,100,0.4,100,2.2,100,2.3,100,2.3,100,1008.0,100,32.4,100,16,100,40.3,100,5.0,100,8.0,1,-1.4,1,1008.0,1,1008.0,100,1008.0,100,32.4,100,31.7,100,16,100,21,100,40.3,100,38.9,100
2020-10-30T08:10:00Z,44489,9302001,WEST CHEDABUCTO BAY,0.0,45.48687,-61.14100000000001,18,2020-10-30T08:10:00.000Z,110,2020-10-30T08:16:09.671Z,45.4872,100,-61.14128,100,4.5,100,11.4,100,12.5,100,0.0,100,3.6,100,,-1,,-1,,-1,,-1,,-1,,-1,,-1,,-1,1007.9,100,34.6,100,20,100,45.4,100,5.0,100,8.0,1,-1.4,1,1007.9,1,1007.9,100,1007.9,100,34.6,100,33.8,100,20,100,26,100,45.4,100,43.9,100
2020-10-30T08:20:00Z,44489,9302001,WEST CHEDABUCTO BAY,0.0,45.48687,-61.14100000000001,18,2020-10-30T08:20:00.000Z,110,2020-10-30T08:23:15.237Z,45.4872,100,-61.14131999999999,100,4.5,100,11.4,100,12.5,100,0.0,100,3.6,100,,-1,,-1,,-1,,-1,,-1,,-1,,-1,,-1,1007.9,100,35.6,100,20,100,42.8,100,5.0,100,8.0,1,-1.5,1,1007.9,1,1007.9,100,1007.9,100,35.6,100,34.9,100,20,100,25,100,42.8,100,41.8,100
2020-10-30T08:30:00Z,44489,9302001,WEST CHEDABUCTO BAY,0.0,45.48687,-61.14100000000001,18,2020-10-30T08:30:00.000Z,110,2020-10-30T08:34:06.905Z,45.48718,100,-61.14133,100,4.4,100,11.4,100,12.5,100,0.0,100,3.6,100,,-1,,-1,,-1,,-1,,-1,,-1,,-1,,-1,1007.8,100,34.9,100,22,100,43.9,100,5.0,100,8.0,1,-1.2,1,1007.8,1,1007.8,100,1007.9,100,34.9,100,33.8,100,22,100,28,100,43.9,100,43.6,100
2020-10-30T08:40:00Z,44489,9302001,WEST CHEDABUCTO BAY,0.0,45.48687,-61.14100000000001,18,2020-10-30T08:40:00.000Z,110,2020-10-30T08:43:09.897Z,45.4872,100,-61.14133,100,4.3,100,11.4,100,12.5,100,0.0,100,3.6,100,,-1,,-1,,-1,,-1,,-1,,-1,,-1,,-1,1007.8,100,33.8,100,23,100,42.8,100,5.0,100,8.0,1,-1.3,1,1007.8,1,1007.8,100,1007.8,100,33.8,100,32.8,100,23,100,29,100,42.8,100,41.8,100
2020-10-30T08:50:00Z,44489,9302001,WEST CHEDABUCTO BAY,0.0,45.48687,-61.14100000000001,18,2020-10-30T08:50:00.000Z,110,2020-10-30T08:53:06.995Z,45.48718,100,-61.14131999999999,100,4.1,100,11.4,100,12.5,100,0.0,100,3.6,100,,-1,,-1,,-1,,-1,,-1,,-1,,-1,,-1,1007.8,100,29.9,100,26,100,36.7,100,5.0,100,8.0,1,-1.3,1,1007.8,1,1007.8,100,1007.8,100,29.9,100,28.8,100,26,100,31,100,36.7,100,36.4,100
2020-10-30T09:00:00Z,44489,9302001,WEST CHEDABUCTO BAY,0.0,45.48687,-61.14100000000001,18,2020-10-30T09:00:00.000Z,108,2020-10-30T09:03:15.671Z,45.48718,100,-61.14133,100,4.1,100,11.4,100,12.5,100,0.0,100,3.6,100,0.2,100,0.5,100,2.3,100,0.3,100,0.4,100,2.3,100,2.4,100,2.5,100,1007.8,100,30.6,100,29,100,38.5,100,5.0,100,7.0,1,-1.5,1,1007.8,1,1007.8,100,1007.8,100,30.6,100,29.9,100,29,100,34,100,38.5,100,38.5,100
2020-10-30T09:10:00Z,44489,9302001,WEST CHEDABUCTO BAY,0.0,45.48687,-61.14100000000001,18,2020-10-30T09:10:00.000Z,110,2020-10-30T09:16:12.849Z,45.4872,100,-61.14133,100,4.1,100,11.4,100,12.5,100,0.0,100,3.6,100,,-1,,-1,,-1,,-1,,-1,,-1,,-1,,-1,1007.7,100,31.0,100,25,100,38.2,100,5.0,100,6.0,1,-1.5,1,1007.7,1,1007.7,100,1007.7,100,31.0,100,30.2,100,25,100,30,100,38.2,100,37.8,100
2020-10-30T09:20:00Z,44489,9302001,WEST CHEDABUCTO BAY,0.0,45.48687,-61.14100000000001,18,2020-10-30T09:20:00.000Z,110,2020-10-30T09:23:13.025Z,45.48718,100,-61.14131999999999,100,4.1,100,11.4,100,12.5,100,0.0,100,3.6,100,,-1,,-1,,-1,,-1,,-1,,-1,,-1,,-1,1008.0,100,28.4,100,30,100,36.0,100,5.0,100,5.0,1,-1.0,1,1008.0,1,1008.0,100,1008.1,100,28.4,100,27.7,100,30,100,35,100,36.0,100,35.3,100